User: anonymous   Login
Location: Homewood
(41.1836°S, 175.9581°E)
Time: 02:20:33
(UTC+00:00)
Language:

Meteor 1-4 Rocket - Orbit

View from above orbital plane
View from above orbital plane
View from above satellite
View from above satellite

Ground track
Ground track

The orbit data is extracted from the following two-line orbital elements,

1 04394U 70037B   24167.62106997  .00053092  00000-0  50783-3 0  9992
2 04394  81.2280 226.5481 0015434 315.3763  44.6250 15.66329799956992
Epoch (UTC): 15 June 2024 14:54:20
Eccentricity: 0.0015434
inclination: 81.2280°
perigee height: 359 km
apogee height: 380 km
right ascension of ascending node: 226.5481°
argument of perigee: 315.3763°
revolutions per day: 15.66329799
mean anomaly at epoch: 44.6250°
orbit number at epoch: 95699

The dashed part of the orbit path shows where the satellite is in the earth's shadow,  

DLR